Location: Fredericton
(45.9636°N, 66.6431°W)
Time: 22:18:52
(UTC-03:00)

ISS - Visible Passes

Search period start: 20 September 2017 00:00
Search period end: 30 September 2017 00:00
Orbit: 402 x 407 km, 51.6° (Epoch: 21 September)

Date Brightness Start Highest point End Pass type
(mag) Time Alt. Az. Time Alt. Az. Time Alt. Az.
20 Sep -2.9 05:27:01 36° S 05:27:01 36° S 05:29:22 10° SE visible
21 Sep -1.6 06:10:35 12° SW 06:10:35 12° SW 06:11:22 10° SSW visible
25 Sep -2.7 20:55:18 10° SSW 20:57:30 30° S 20:57:30 30° S visible
26 Sep -2.4 20:03:34 10° S 20:06:06 21° SE 20:07:47 15° E visible
26 Sep -1.6 21:39:04 10° WSW 21:40:28 23° WSW 21:40:28 23° WSW visible
27 Sep -4.0 20:46:40 10° SW 20:49:56 77° SSE 20:50:33 54° E visible
28 Sep -3.4 19:54:27 10° SW 19:57:34 44° SE 20:00:30 12° ENE visible
28 Sep -2.0 21:30:57 10° W 21:33:09 32° WNW 21:33:09 32° WNW visible
29 Sep -3.4 20:38:21 10° WSW 20:41:35 58° NNW 20:42:58 30° NE visible
29 Sep -0.2 22:15:33 10° WNW 22:15:36 10° WNW 22:15:36 10° WNW visible
